{"data":{"norad_id":61245,"intl_designator":"2024-175C","name":"STARLINK-11280 [DTC]","alt_names":[],"object_type":"PAYLOAD","status":"ACTIVE","operator":null,"country":"US","launch_date":"2024-09-25","launch_site_code":"AFWTR","launch_vehicle":null,"mission":null,"orbit_class":"UNKNOWN","rcs_meters":null,"size_class":null,"mass_kg":null,"dimensions":null,"purposes":["comms"],"wikipedia_slug":null,"has_3d_model":false,"image_url":null,"decayed_at":null,"tle_current":{"epoch":"2026-09-21T21:18:33.426432Z","epoch_age_seconds":72197,"freshness":"FRESH","line1":"1 61245U 24175C   26264.88788688  .00000180  00000+0  63421-5 0  9997","line2":"2 61245  53.1601 168.9402 0001166 117.1486 242.9651 15.69705875114185","mean_motion":15.69705875,"eccentricity":0.0001166,"inclination_deg":53.1601,"raan_deg":168.9402,"arg_perigee_deg":117.1486,"mean_anomaly_deg":242.9651,"bstar":6.3421e-6,"rev_number":11418,"period_min":91.736931289755,"perigee_km":358.952918327,"apogee_km":360.52419090633,"semimajor_km":6737.8755546167,"source":"CELESTRAK","updated_at":"2026-09-22T09:00:49.347502Z"}}}